STARLINK-31987, 60017

Orbit data source: Space-Track

STARLINK-31987, 60017 is a payload satellite owned by SpaceX/Seattle (US) in LEO that was launched on Sat, 08 Jun 2024 UTC via an FALCON 9 launch vehicle from the Air Force Eastern Test Range (AFETR). Payload-class satellites include a variety of spacecraft equipped with specific instruments for various scientific and technological missions. These include communications satellites like Starlink; space stations such as the ISS; scientific satellites like the Hubble; Earth observation satellites from companies like Planet Labs, Umbra, and HawkEye 360; GPS; miniature CubeSats for education and research; and military/defense satellites.

Loading next visibility...
Identifier
60017, 2024-111B
Orbit
LEO
Country
Flag of USUS
Related business
Manufacturer
SpaceX/Seattle
Mission
Operational Commercial Communications
Bus & Motor
STARLINK V2M, Unknown motor
Mass
730 kg wet, ~700 kg dry
Launch date (UTC)
2024-06-08 (2 years ago)
Launch vehicle
FALCON 9
Launch site
Air Force Eastern Test Range (AFETR)
Object type
Payload
Rocket body
Debris
Shape & HBR
Box + 2 Pan, 17.7 m
Radar Cross Section
33.884 m², Large (>1 m²)

Expand to show TLE details & history
Last TLE update: 3 days ago

TLE from 3 days ago
0 STARLINK-31987
1 60017U 24111B   26170.69832812 -.00001180  00000-0 -26267-4 0  9997
2 60017  53.1613 321.6598 0001100  82.2092 277.9035 15.31713190114611
Epoch: 2026-06-19T16:45Z
TLE epoch observation values (Epoch: 2026-06-19T16:45:35.549Z)
Latitude
0.00003°
Longitude
162.33813°
Altitude
471.498 km
Speed
7.632 km/s
True Right ascension
21h 26m 38s
True Declination
0° 00' 00"
Sunlit
Object was in full shadow at epoch
Visualization orbit readout
Latitude
Unknown
Longitude
Unknown
Altitude
Unknown
Speed
Unknown
Apparent Right ascension
Unknown
Apparent Declination
Unknown
Sunlit
N/A
Visualization observer readout
Local Sidereal Time
21:29:56
Azimuth
Unknown
Elevation
Unknown
Doppler factor
Unknown
Orbital elements
Apogee altitude
471.71 km
Perigee altitude
470.204 km
Semi-major axis
6,849.094 km
Eccentricity
0.00011
Inclination
53.1613°
RAAN
321.6598°
Arg. of periapsis
82.2092°
True anomaly
277.89101°
Mean anomaly
277.9035°
Eccentric anomaly
277.89726°
Mean motion
3.82907 °/min
Orbital period
94.02 mins
BSTAR
-0.000026267
Loading maneuver chart data...
Computing Atmospheric mass density...
Loading historical data...
Loading historical data...
Loading historical data...
Loading historical data...
Loading historical data...
Loading historical data...
Loading historical data...

Documentation

Showing up to 5 results
|